sat.trackr.live / text

‹ back to catalog

AETHER-6

NORAD 67377 · 2026-004Q

PAYLOAD ACTIVE UNKNOWN

§ Identity

Operator
Country
CA
Launch date
2026-01-11
Launch site
AFWTR
Launch vehicle
Mass (kg)
RCS (m²)

External: N2YO · Heavens-Above · Gunter

§ Orbital elements

Epoch: 2026-05-24T23:13:22.768032Z

Period
96.89 min
Inclination
97.8032°
Eccentricity
0.0002162
Mean motion
14.86245126 rev/d
Perigee alt
608.2 km
Apogee alt
611.2 km
Semi-major
6,987.8 km
B*
7.1796e-5
RAAN
143.9952°
Arg perigee
184.4656°
Mean anomaly
175.6541°
Rev number
1,983

§ Raw data

AETHER-61 67377U 26004Q   26144.96762463  .00000578  00000+0  71796-4 0  99952 67377  97.8032 143.9952 0002162 184.4656 175.6541 14.86245126 19838

JSON: /api/v1/satellites/67377 · /tle

For live sub-satellite position, see the globe view (requires WebGL).

§ Visibility from observer

Set your observer location to see the next 7 days of passes ≥ 10°. The values pass through the URL so the page stays shareable.

No JS? Fill the form by hand. The geolocation button needs JavaScript.